Flood From: 18-02-2018 16:00 Until: 19-02-2018 16:00 warning for: Flood Level: Yellow info button

Although rather usual in this region, locally or potentially dangerous phenomena are expected. (such as local winds, summer thunderstorms, rising streams or high waves) Be aware and pay attention to the latest weather updates, especially if you carry out activities exposed to weather or close to a stream or shoreline. 


Meteo18 Weather Cam more information Meteo18 Weather Cam


Thunder radar more information blitzortung!


Rain radar more information rain snow radar


Visit our other weather sites:

Template documentation
and downloads

And another site



Weather Underground History page Text

Daily Summary for February 4, 2017 Units:  English    Metric   Both
« Previous Day
Next Day »
Daily Weekly Monthly Yearly Custom
  High: Low: Average:
Temperature: TemperatureC °F 2.9 °F 6 °F
Dew Point: DewpointC °F 1.4 °F 4 °F
Humidity: Humidity % 73 % 86 %
Wind Speed: WindSpeedKMH mph 0.0 mph 13.5 mph
Wind Gust: WindSpeedGustKMH mph - -
Wind:- - SSW
Pressure: PressurehPa in 989.1 in -
Precipitation: 15.5 in    
Historical Graphs
 
 
Tabular Data for February 4, 2017
Time Temperature Dew Point Pressure Wind Wind Speed Wind Gust Humidity Rainfall Rate (Hourly)
TemperatureC °F DewpointC °F PressurehPa in Calm     Humidity % HourlyPrecipMM in
00:02 4.9 °F 3.4 °F 1006.3 in ESE 6.4 mph 12.9 mph 90 % 0.0 in
00:07 4.9 °F 3.2 °F 1006.3 in SSE 3.2 mph 12.9 mph 89 % 0.0 in
00:12 4.9 °F 3.2 °F 1006.0 in SSE 6.4 mph 11.3 mph 89 % 0.0 in
00:17 4.9 °F 3.2 °F 1006.0 in SSE 4.8 mph 11.3 mph 89 % 0.0 in
00:22 4.9 °F 3.2 °F 1006.0 in SSE 1.6 mph 11.3 mph 89 % 0.0 in
00:27 4.9 °F 3.2 °F 1006.0 in SSE 1.6 mph 11.3 mph 89 % 0.0 in
00:32 4.9 °F 3.2 °F 1005.6 in SSE 1.6 mph 11.3 mph 89 % 0.0 in
00:42 4.9 °F 3.2 °F 1005.0 in SE 3.2 mph 11.3 mph 89 % 0.0 in
00:47 4.9 °F 3.2 °F 1004.6 in SE 1.6 mph 11.3 mph 89 % 0.0 in
00:52 4.9 °F 3.1 °F 1004.3 in ESE 8.0 mph 11.3 mph 88 % 0.0 in
00:57 5.1 °F 3.3 °F 1003.9 in ESE 3.2 mph 11.3 mph 88 % 0.0 in
01:02 5.2 °F 3.2 °F 1003.6 in ESE 3.2 mph 14.5 mph 87 % 0.0 in
01:07 5.2 °F 3.2 °F 1003.9 in SE 4.8 mph 14.5 mph 87 % 0.0 in
01:12 5.1 °F 3.3 °F 1003.6 in SE 9.7 mph 12.9 mph 88 % 0.0 in
01:17 5.1 °F 3.3 °F 1003.6 in SSE 3.2 mph 11.3 mph 88 % 0.0 in
01:22 5.1 °F 3.1 °F 1003.3 in SE 4.8 mph 11.3 mph 87 % 0.0 in
01:27 5.2 °F 3.2 °F 1002.9 in SE 9.7 mph 11.3 mph 87 % 0.0 in
01:32 5.2 °F 3.2 °F 1002.6 in SE 6.4 mph 12.9 mph 87 % 0.0 in
01:37 5.3 °F 3.1 °F 1002.3 in SE 14.5 mph 14.5 mph 86 % 0.0 in
01:42 5.3 °F 3.1 °F 1002.6 in SE 6.4 mph 14.5 mph 86 % 0.0 in
01:47 5.2 °F 3.1 °F 1002.6 in ESE 8.0 mph 14.5 mph 86 % 0.0 in
01:52 5.2 °F 3.1 °F 1002.6 in SSE 6.4 mph 14.5 mph 86 % 0.0 in
01:57 5.1 °F 3.0 °F 1002.6 in South 6.4 mph 14.5 mph 86 % 0.0 in
02:02 5.1 °F 3.1 °F 1002.6 in SE 8.0 mph 11.3 mph 87 % 0.0 in
02:07 5.1 °F 3.1 °F 1002.6 in SE 6.4 mph 11.3 mph 87 % 0.0 in
02:12 5.1 °F 3.1 °F 1002.3 in ESE 4.8 mph 11.3 mph 87 % 0.0 in
02:17 5.1 °F 3.1 °F 1001.9 in SSE 1.6 mph 11.3 mph 87 % 0.0 in
02:22 5.1 °F 3.1 °F 1001.9 in SSE 1.6 mph 9.7 mph 87 % 0.0 in
02:27 5.1 °F 3.1 °F 1001.9 in SE 4.8 mph 8.0 mph 87 % 0.0 in
02:32 5.1 °F 3.1 °F 1001.9 in Calm   14.5 mph 87 % 0.0 in
02:37 5.1 °F 3.1 °F 1001.6 in SE 4.8 mph 14.5 mph 87 % 0.0 in
02:42 5.1 °F 3.1 °F 1001.2 in SE 6.4 mph 9.7 mph 87 % 0.0 in
02:47 5.2 °F 3.2 °F 1000.2 in ESE 11.3 mph 11.3 mph 87 % 0.0 in
02:52 5.4 °F 3.2 °F 1000.6 in SSE 8.0 mph 20.9 mph 86 % 0.0 in
02:57 5.6 °F 3.4 °F 1000.6 in East 14.5 mph 22.5 mph 86 % 0.0 in
03:02 5.7 °F 3.4 °F 1000.6 in SSE 4.8 mph 22.5 mph 85 % 0.0 in
03:07 5.7 °F 3.4 °F 1000.9 in SSE 1.6 mph 17.7 mph 85 % 0.0 in
03:12 5.7 °F 3.4 °F 1000.9 in SSE 3.2 mph 17.7 mph 85 % 0.0 in
03:17 5.8 °F 3.3 °F 1000.6 in SE 1.6 mph 14.5 mph 84 % 0.0 in
03:22 5.8 °F 3.3 °F 1000.6 in SE 4.8 mph 14.5 mph 84 % 0.0 in
03:27 5.9 °F 3.2 °F 1000.6 in SSE 3.2 mph 12.9 mph 83 % 0.0 in
03:32 5.9 °F 3.2 °F 1000.6 in SSE 4.8 mph 16.1 mph 83 % 0.0 in
03:37 5.9 °F 3.2 °F 1000.2 in SE 1.6 mph 16.1 mph 83 % 0.0 in
03:42 6.0 °F 3.2 °F 1000.2 in SE 9.7 mph 12.9 mph 82 % 0.0 in
03:47 6.0 °F 3.2 °F 1000.2 in ESE 11.3 mph 16.1 mph 82 % 0.0 in
03:52 6.1 °F 3.3 °F 999.9 in SE 6.4 mph 19.3 mph 82 % 0.0 in
03:57 5.9 °F 3.1 °F 999.9 in ESE 4.8 mph 19.3 mph 82 % 0.0 in
04:02 5.9 °F 3.2 °F 999.9 in SE 6.4 mph 14.5 mph 83 % 0.0 in
04:07 5.8 °F 3.1 °F 999.9 in ESE 6.4 mph 14.5 mph 83 % 0.0 in
04:12 5.8 °F 3.3 °F 999.9 in SE 12.9 mph 19.3 mph 84 % 0.3 in
04:17 5.7 °F 3.4 °F 999.5 in ESE 14.5 mph 20.9 mph 85 % 0.5 in
04:22 5.6 °F 3.4 °F 999.2 in SE 9.7 mph 30.6 mph 86 % 1.0 in
04:27 5.3 °F 3.5 °F 999.2 in ESE 4.8 mph 30.6 mph 88 % 1.3 in
04:32 5.2 °F 3.5 °F 999.2 in SE 12.9 mph 30.6 mph 89 % 1.5 in
04:37 5.1 °F 3.4 °F 999.2 in East 16.1 mph 22.5 mph 89 % 1.8 in
04:42 5.1 °F 3.6 °F 998.9 in SSE 12.9 mph 22.5 mph 90 % 2.3 in
04:47 5.0 °F 3.7 °F 998.5 in ESE 6.4 mph 16.1 mph 91 % 2.5 in
04:52 5.0 °F 3.7 °F 998.5 in ESE 12.9 mph 16.1 mph 91 % 2.8 in
04:57 5.0 °F 3.7 °F 998.2 in SE 8.0 mph 22.5 mph 91 % 3.3 in
05:02 4.9 °F 3.7 °F 997.9 in SE 4.8 mph 22.5 mph 92 % 3.3 in
05:12 4.9 °F 3.9 °F 997.9 in SE 16.1 mph 16.1 mph 93 % 3.3 in
05:17 5.1 °F 3.9 °F 997.9 in SE 12.9 mph 17.7 mph 92 % 3.0 in
05:22 5.1 °F 3.9 °F 997.5 in SE 12.9 mph 19.3 mph 92 % 2.8 in
05:27 5.2 °F 4.0 °F 997.5 in SE 16.1 mph 20.9 mph 92 % 2.8 in
05:37 5.4 °F 4.2 °F 997.2 in SSE 14.5 mph 29.0 mph 92 % 2.5 in
05:42 5.4 °F 4.2 °F 997.2 in SE 16.1 mph 29.0 mph 92 % 2.3 in
05:47 5.5 °F 4.3 °F 996.8 in SE 9.7 mph 29.0 mph 92 % 2.3 in
05:52 5.4 °F 4.2 °F 996.8 in East 11.3 mph 27.4 mph 92 % 2.3 in
05:57 5.4 °F 4.2 °F 996.8 in SE 9.7 mph 25.7 mph 92 % 2.0 in
06:02 5.5 °F 4.3 °F 996.8 in SSE 12.9 mph 25.7 mph 92 % 1.8 in
06:07 5.5 °F 4.3 °F 996.8 in SSE 6.4 mph 25.7 mph 92 % 1.8 in
06:12 5.4 °F 4.4 °F 996.5 in SSE 9.7 mph 22.5 mph 93 % 1.8 in
06:17 5.5 °F 4.5 °F 996.5 in SSE 8.0 mph 22.5 mph 93 % 1.5 in
06:22 5.7 °F 4.7 °F 996.2 in South 16.1 mph 22.5 mph 93 % 1.5 in
06:27 5.8 °F 4.8 °F 996.2 in SSE 14.5 mph 29.0 mph 93 % 1.5 in
06:32 5.9 °F 4.7 °F 995.8 in SE 11.3 mph 29.0 mph 92 % 1.5 in
06:37 6.1 °F 4.9 °F 995.8 in SSW 12.9 mph 29.0 mph 92 % 1.5 in
06:42 6.2 °F 5.0 °F 995.5 in SE 8.0 mph 27.4 mph 92 % 1.5 in
06:47 6.2 °F 5.2 °F 995.1 in SSE 9.7 mph 25.7 mph 93 % 1.3 in
06:52 6.3 °F 5.3 °F 995.1 in South 16.1 mph 25.7 mph 93 % 1.5 in
07:02 6.4 °F 5.2 °F 994.8 in SSE 8.0 mph 25.7 mph 92 % 1.0 in
07:07 6.4 °F 5.2 °F 994.5 in SSE 3.2 mph 20.9 mph 92 % 1.0 in
07:12 6.4 °F 5.2 °F 994.5 in South 4.8 mph 20.9 mph 92 % 0.8 in
07:17 6.4 °F 5.0 °F 994.1 in ESE 6.4 mph 17.7 mph 91 % 0.8 in
07:22 6.4 °F 5.0 °F 994.1 in SSW 8.0 mph 17.7 mph 91 % 0.5 in
07:27 6.4 °F 5.0 °F 994.1 in ESE 9.7 mph 19.3 mph 91 % 0.5 in
07:32 6.3 °F 4.9 °F 993.8 in SSW 14.5 mph 20.9 mph 91 % 0.5 in
07:37 6.3 °F 4.9 °F 993.5 in ESE 11.3 mph 20.9 mph 91 % 0.5 in
07:42 6.3 °F 4.9 °F 993.5 in SE 9.7 mph 20.9 mph 91 % 0.3 in
07:47 6.3 °F 4.9 °F 993.5 in SE 3.2 mph 19.3 mph 91 % 0.0 in
07:52 6.2 °F 4.8 °F 993.5 in SSE 6.4 mph 19.3 mph 91 % 0.0 in
07:57 6.2 °F 4.8 °F 993.1 in SE 11.3 mph 19.3 mph 91 % 0.0 in
08:02 6.3 °F 4.9 °F 993.1 in SE 9.7 mph 19.3 mph 91 % 0.0 in
08:07 6.3 °F 4.8 °F 992.8 in SE 17.7 mph 25.7 mph 90 % 0.0 in
08:12 6.4 °F 4.9 °F 992.4 in SE 12.9 mph 27.4 mph 90 % 0.0 in
08:17 6.6 °F 4.9 °F 992.1 in ESE 12.9 mph 27.4 mph 89 % 0.0 in
08:22 6.7 °F 5.0 °F 992.1 in ESE 9.7 mph 35.4 mph 89 % 0.0 in
08:32 6.8 °F 5.0 °F 991.8 in ESE 24.1 mph 30.6 mph 88 % 0.0 in
08:37 7.1 °F 5.1 °F 991.4 in South 22.5 mph 30.6 mph 87 % 0.0 in
08:42 7.3 °F 5.1 °F 991.4 in SE 11.3 mph 33.8 mph 86 % 0.3 in
08:47 7.2 °F 5.2 °F 990.7 in SE 19.3 mph 37.0 mph 87 % 0.5 in
08:52 7.1 °F 5.1 °F 990.7 in SSE 9.7 mph 37.0 mph 87 % 0.5 in
08:57 7.1 °F 5.2 °F 990.7 in South 27.4 mph 37.0 mph 88 % 0.5 in
09:02 7.2 °F 5.2 °F 990.4 in SE 16.1 mph 46.7 mph 87 % 0.8 in
09:07 7.3 °F 5.3 °F 990.4 in SSW 25.7 mph 46.7 mph 87 % 1.0 in
09:12 7.4 °F 5.4 °F 990.1 in SSE 16.1 mph 46.7 mph 87 % 1.0 in
09:17 7.3 °F 5.4 °F 990.1 in SE 9.7 mph 38.6 mph 88 % 1.5 in
09:22 7.2 °F 5.5 °F 989.7 in SE 24.1 mph 43.4 mph 89 % 2.3 in
09:32 6.9 °F 5.4 °F 989.7 in SE 12.9 mph 43.4 mph 90 % 3.3 in
09:37 6.9 °F 5.5 °F 989.4 in SSE 27.4 mph 38.6 mph 91 % 3.6 in
09:42 6.9 °F 5.7 °F 989.4 in South 22.5 mph 38.6 mph 92 % 3.8 in
09:47 7.1 °F 6.0 °F 989.1 in SSW 33.8 mph 38.6 mph 93 % 4.3 in
09:52 7.2 °F 6.1 °F 989.1 in SSW 24.1 mph 45.1 mph 93 % 4.6 in
09:57 7.3 °F 6.2 °F 989.1 in SSW 40.2 mph 45.1 mph 93 % 4.6 in
10:02 7.7 °F 6.5 °F 989.1 in WSW 54.7 mph 64.4 mph 92 % 4.8 in
10:07 7.9 °F 6.5 °F 989.4 in SW 35.4 mph 64.4 mph 91 % 4.6 in
10:12 7.9 °F 6.5 °F 989.7 in WSW 57.9 mph 64.4 mph 91 % 4.6 in
10:17 7.9 °F 6.4 °F 990.1 in WSW 38.6 mph 64.4 mph 90 % 4.3 in
10:22 7.9 °F 6.4 °F 990.1 in WSW 35.4 mph 64.4 mph 90 % 3.6 in
10:27 7.9 °F 6.4 °F 990.7 in SW 40.2 mph 64.4 mph 90 % 3.3 in
10:32 7.9 °F 6.4 °F 991.1 in WSW 33.8 mph 64.4 mph 90 % 3.3 in
10:37 7.9 °F 6.4 °F 991.4 in WSW 27.4 mph 64.4 mph 90 % 3.0 in
10:42 7.9 °F 6.5 °F 991.8 in SW 33.8 mph 64.4 mph 91 % 2.3 in
10:47 7.8 °F 6.4 °F 992.1 in SW 29.0 mph 64.4 mph 91 % 2.3 in
10:57 7.7 °F 6.6 °F 992.4 in SW 16.1 mph 54.7 mph 93 % 2.3 in
11:02 7.7 °F 6.5 °F 992.8 in WSW 12.9 mph 48.3 mph 92 % 2.0 in
11:07 7.7 °F 6.6 °F 993.1 in SSW 22.5 mph 48.3 mph 93 % 1.8 in
11:12 7.7 °F 6.6 °F 993.1 in SW 20.9 mph 48.3 mph 93 % 2.0 in
11:17 7.7 °F 6.6 °F 993.5 in WSW 24.1 mph 48.3 mph 93 % 1.8 in
11:22 7.7 °F 6.6 °F 993.8 in WSW 27.4 mph 51.5 mph 93 % 1.8 in
11:27 7.6 °F 6.5 °F 993.8 in WSW 20.9 mph 51.5 mph 93 % 1.5 in
11:32 7.6 °F 6.7 °F 994.1 in West 37.0 mph 59.5 mph 94 % 1.3 in
11:37 7.6 °F 6.5 °F 994.1 in West 32.2 mph 59.5 mph 93 % 1.3 in
11:42 7.8 °F 6.7 °F 994.8 in West 14.5 mph 59.5 mph 93 % 1.0 in
11:47 7.7 °F 6.6 °F 994.8 in WSW 29.0 mph 59.5 mph 93 % 0.8 in
11:52 7.7 °F 6.8 °F 995.1 in West 19.3 mph 59.5 mph 94 % 0.5 in
11:57 7.6 °F 6.7 °F 995.1 in WSW 35.4 mph 49.9 mph 94 % 0.5 in
12:02 7.6 °F 6.7 °F 995.5 in West 40.2 mph 43.4 mph 94 % 0.5 in
12:07 7.6 °F 6.7 °F 995.5 in West 29.0 mph 51.5 mph 94 % 0.5 in
12:12 7.6 °F 6.7 °F 995.8 in West 27.4 mph 51.5 mph 94 % 0.5 in
12:17 7.4 °F 6.5 °F 996.2 in WSW 41.8 mph 51.5 mph 94 % 0.5 in
12:22 7.3 °F 6.2 °F 996.2 in WSW 43.4 mph 51.5 mph 93 % 0.8 in
12:27 7.3 °F 5.9 °F 996.5 in West 37.0 mph 51.5 mph 91 % 0.8 in
12:32 7.3 °F 6.1 °F 996.8 in West 25.7 mph 59.5 mph 92 % 0.5 in
12:37 7.0 °F 5.6 °F 997.2 in WNW 33.8 mph 61.1 mph 91 % 0.5 in
12:42 6.7 °F 5.2 °F 997.5 in West 49.9 mph 61.1 mph 90 % 0.8 in
12:47 6.5 °F 5.0 °F 997.9 in West 46.7 mph 61.1 mph 90 % 0.8 in
12:52 6.4 °F 4.7 °F 998.2 in WSW 43.4 mph 64.4 mph 89 % 0.8 in
12:57 6.3 °F 4.1 °F 998.5 in West 49.9 mph 64.4 mph 86 % 0.8 in
13:02 6.2 °F 4.0 °F 998.9 in West 32.2 mph 66.0 mph 86 % 0.8 in
13:07 6.3 °F 3.8 °F 998.9 in WNW 37.0 mph 66.0 mph 84 % 0.5 in
13:12 6.3 °F 4.1 °F 999.5 in West 19.3 mph 69.2 mph 86 % 0.8 in
13:17 6.2 °F 4.2 °F 999.5 in WSW 43.4 mph 69.2 mph 87 % 0.5 in
13:22 6.2 °F 4.0 °F 999.9 in West 37.0 mph 69.2 mph 86 % 0.5 in
13:27 6.3 °F 4.0 °F 999.9 in West 30.6 mph 53.1 mph 85 % 0.5 in
13:32 6.3 °F 4.0 °F 1000.2 in WSW 16.1 mph 53.1 mph 85 % 0.5 in
13:37 6.3 °F 4.0 °F 1000.6 in West 32.2 mph 46.7 mph 85 % 0.5 in
13:42 6.4 °F 4.1 °F 1000.9 in WNW 20.9 mph 46.7 mph 85 % 0.3 in
13:47 6.4 °F 3.9 °F 1000.9 in West 32.2 mph 48.3 mph 84 % 0.3 in
13:52 6.5 °F 4.0 °F 1001.2 in NW 32.2 mph 48.3 mph 84 % 0.3 in
13:57 6.6 °F 4.1 °F 1001.2 in West 12.9 mph 56.3 mph 84 % 0.3 in
14:02 6.6 °F 4.1 °F 1001.6 in WSW 22.5 mph 56.3 mph 84 % 0.3 in
14:07 6.6 °F 4.3 °F 1001.9 in WSW 35.4 mph 56.3 mph 85 % 0.0 in
14:12 6.6 °F 4.3 °F 1001.9 in WSW 32.2 mph 48.3 mph 85 % 0.0 in
14:17 6.6 °F 4.3 °F 1002.3 in WSW 14.5 mph 48.3 mph 85 % 0.0 in
14:27 6.7 °F 4.4 °F 1002.6 in West 37.0 mph 38.6 mph 85 % 0.0 in
14:32 6.8 °F 4.3 °F 1002.6 in WNW 27.4 mph 41.8 mph 84 % 0.0 in
14:37 6.9 °F 4.4 °F 1002.9 in West 24.1 mph 43.4 mph 84 % 0.0 in
14:42 7.0 °F 4.3 °F 1002.9 in West 22.5 mph 43.4 mph 83 % 0.0 in
14:47 7.1 °F 4.4 °F 1003.3 in West 32.2 mph 43.4 mph 83 % 0.0 in
14:52 7.1 °F 4.2 °F 1003.3 in West 25.7 mph 43.4 mph 82 % 0.0 in
14:57 7.2 °F 4.3 °F 1003.3 in West 16.1 mph 43.4 mph 82 % 0.0 in
15:02 7.3 °F 4.3 °F 1003.6 in WSW 24.1 mph 46.7 mph 81 % 0.0 in
15:07 7.4 °F 4.4 °F 1003.6 in WSW 20.9 mph 48.3 mph 81 % 0.0 in
15:12 7.4 °F 4.4 °F 1003.9 in WSW 9.7 mph 48.3 mph 81 % 0.0 in
15:17 7.4 °F 4.4 °F 1003.9 in WSW 29.0 mph 48.3 mph 81 % 0.0 in
15:22 7.5 °F 4.3 °F 1004.3 in West 38.6 mph 38.6 mph 80 % 0.0 in
15:27 7.6 °F 4.4 °F 1004.3 in West 14.5 mph 40.2 mph 80 % 0.0 in
15:32 7.7 °F 4.5 °F 1004.3 in West 20.9 mph 40.2 mph 80 % 0.0 in
15:37 7.7 °F 4.3 °F 1004.6 in WSW 17.7 mph 40.2 mph 79 % 0.0 in
15:42 7.8 °F 4.2 °F 1004.6 in West 22.5 mph 43.4 mph 78 % 0.0 in
15:47 7.8 °F 4.0 °F 1005.0 in SW 16.1 mph 43.4 mph 77 % 0.0 in
15:52 7.8 °F 4.0 °F 1005.0 in WSW 17.7 mph 43.4 mph 77 % 0.0 in
15:57 7.9 °F 4.1 °F 1005.0 in WNW 14.5 mph 35.4 mph 77 % 0.0 in
16:02 7.9 °F 4.3 °F 1005.3 in WSW 19.3 mph 30.6 mph 78 % 0.0 in
16:07 8.0 °F 4.4 °F 1005.3 in West 17.7 mph 30.6 mph 78 % 0.0 in
16:12 8.1 °F 4.5 °F 1005.6 in WSW 17.7 mph 33.8 mph 78 % 0.0 in
16:17 8.1 °F 4.5 °F 1005.6 in WNW 14.5 mph 33.8 mph 78 % 0.0 in
16:22 8.0 °F 4.4 °F 1005.6 in West 24.1 mph 33.8 mph 78 % 0.0 in
16:27 8.0 °F 4.2 °F 1006.0 in West 17.7 mph 35.4 mph 77 % 0.0 in
16:32 8.0 °F 4.2 °F 1006.0 in WSW 16.1 mph 35.4 mph 77 % 0.0 in
16:37 8.1 °F 4.3 °F 1006.0 in West 19.3 mph 35.4 mph 77 % 0.0 in
16:42 8.2 °F 4.4 °F 1006.0 in WSW 17.7 mph 30.6 mph 77 % 0.0 in
16:47 8.4 °F 4.4 °F 1006.3 in SSW 9.7 mph 29.0 mph 76 % 0.0 in
16:52 8.6 °F 4.2 °F 1006.3 in West 9.7 mph 29.0 mph 74 % 0.0 in
16:57 8.6 °F 4.0 °F 1006.3 in West 27.4 mph 27.4 mph 73 % 0.0 in
17:02 8.5 °F 4.1 °F 1006.7 in West 24.1 mph 32.2 mph 74 % 0.0 in
17:07 8.4 °F 4.0 °F 1006.7 in WSW 14.5 mph 32.2 mph 74 % 0.0 in
17:12 8.3 °F 4.1 °F 1006.7 in WSW 11.3 mph 32.2 mph 75 % 0.0 in
17:17 8.1 °F 3.9 °F 1006.7 in WSW 14.5 mph 27.4 mph 75 % 0.0 in
17:22 8.0 °F 4.0 °F 1006.7 in WSW 9.7 mph 20.9 mph 76 % 0.0 in
17:27 8.1 °F 4.1 °F 1006.7 in SW 8.0 mph 24.1 mph 76 % 0.0 in
17:32 8.0 °F 4.0 °F 1006.7 in WSW 16.1 mph 24.1 mph 76 % 0.0 in
17:37 7.9 °F 3.9 °F 1006.7 in WSW 9.7 mph 24.1 mph 76 % 0.0 in
17:42 7.8 °F 3.8 °F 1006.7 in WSW 8.0 mph 19.3 mph 76 % 0.0 in
17:47 7.7 °F 3.9 °F 1006.7 in West 9.7 mph 19.3 mph 77 % 0.0 in
17:52 7.6 °F 3.8 °F 1006.7 in SW 8.0 mph 17.7 mph 77 % 0.0 in
17:57 7.6 °F 3.8 °F 1006.7 in WSW 6.4 mph 16.1 mph 77 % 0.0 in
18:02 7.4 °F 3.8 °F 1006.7 in WSW 9.7 mph 16.1 mph 78 % 0.0 in
18:07 7.4 °F 3.8 °F 1006.7 in West 9.7 mph 16.1 mph 78 % 0.0 in
18:12 7.3 °F 3.7 °F 1006.7 in SW 3.2 mph 14.5 mph 78 % 0.0 in
18:17 7.2 °F 3.6 °F 1006.7 in SW 6.4 mph 12.9 mph 78 % 0.0 in
18:22 7.2 °F 3.8 °F 1006.7 in SW 4.8 mph 16.1 mph 79 % 0.0 in
18:27 6.9 °F 3.7 °F 1006.7 in SW 4.8 mph 16.1 mph 80 % 0.0 in
18:32 6.8 °F 3.6 °F 1006.7 in SW 4.8 mph 16.1 mph 80 % 0.0 in
18:37 6.8 °F 3.6 °F 1006.7 in WSW 4.8 mph 11.3 mph 80 % 0.0 in
18:42 6.7 °F 3.7 °F 1006.7 in SW 4.8 mph 11.3 mph 81 % 0.0 in
18:47 6.7 °F 3.7 °F 1006.7 in SW 4.8 mph 9.7 mph 81 % 0.0 in
18:52 6.6 °F 3.6 °F 1006.7 in SW 4.8 mph 9.7 mph 81 % 0.0 in
18:57 6.6 °F 3.6 °F 1006.7 in SW 4.8 mph 8.0 mph 81 % 0.0 in
19:02 6.5 °F 3.5 °F 1006.7 in SSW 3.2 mph 8.0 mph 81 % 0.0 in
19:07 5.8 °F 3.0 °F 1006.7 in SSW 3.2 mph 8.0 mph 82 % 0.0 in
19:12 5.1 °F 2.8 °F 1006.7 in SSW 1.6 mph 8.0 mph 85 % 0.0 in
19:17 4.8 °F 3.0 °F 1006.7 in SSW 3.2 mph 4.8 mph 88 % 0.0 in
19:22 4.8 °F 3.0 °F 1006.7 in SSW 3.2 mph 4.8 mph 88 % 0.0 in
19:32 5.1 °F 3.3 °F 1006.7 in SW 4.8 mph 6.4 mph 88 % 0.0 in
19:37 5.3 °F 3.3 °F 1006.7 in SW 6.4 mph 6.4 mph 87 % 0.0 in
19:42 5.4 °F 3.2 °F 1006.7 in SW 9.7 mph 9.7 mph 86 % 0.0 in
19:47 5.6 °F 3.3 °F 1006.7 in SW 4.8 mph 9.7 mph 85 % 0.0 in
19:52 5.6 °F 3.1 °F 1006.7 in SSW 4.8 mph 11.3 mph 84 % 0.0 in
19:57 5.6 °F 3.1 °F 1007.0 in SSW 6.4 mph 11.3 mph 84 % 0.0 in
20:02 5.4 °F 3.1 °F 1006.7 in SW 6.4 mph 11.3 mph 85 % 0.0 in
20:07 5.1 °F 2.8 °F 1006.7 in South 3.2 mph 11.3 mph 85 % 0.0 in
20:12 4.8 °F 2.7 °F 1006.7 in SSW 1.6 mph 9.7 mph 86 % 0.0 in
20:17 4.6 °F 2.5 °F 1006.7 in SW 3.2 mph 8.0 mph 86 % 0.0 in
20:22 4.3 °F 2.3 °F 1006.3 in SSW 1.6 mph 6.4 mph 87 % 0.0 in
20:27 4.1 °F 2.3 °F 1006.7 in SSW 3.2 mph 4.8 mph 88 % 0.0 in
20:32 4.1 °F 2.5 °F 1006.7 in SSW 3.2 mph 4.8 mph 89 % 0.0 in
20:42 3.9 °F 2.1 °F 1006.3 in Calm   4.8 mph 88 % 0.0 in
20:47 3.8 °F 2.0 °F 1006.3 in Calm   4.8 mph 88 % 0.0 in
20:52 3.3 °F 1.5 °F 1006.3 in Calm   3.2 mph 88 % 0.0 in
20:57 3.1 °F 1.5 °F 1006.7 in Calm   3.2 mph 89 % 0.0 in
21:02 2.9 °F 1.4 °F 1006.7 in Calm   3.2 mph 90 % 0.0 in
21:07 2.9 °F 1.6 °F 1006.7 in Calm   3.2 mph 91 % 0.0 in
21:12 2.9 °F 1.7 °F 1006.3 in Calm   1.6 mph 92 % 0.0 in
21:17 2.9 °F 1.6 °F 1006.3 in Calm     91 % 0.0 in
21:22 2.9 °F 1.6 °F 1006.3 in Calm     91 % 0.0 in
21:27 3.1 °F 1.9 °F 1006.3 in Calm     92 % 0.0 in
21:32 3.2 °F 1.7 °F 1006.3 in Calm     90 % 0.0 in
21:37 3.1 °F 1.6 °F 1006.0 in Calm     90 % 0.0 in
21:42 3.3 °F 2.0 °F 1006.0 in Calm     91 % 0.0 in
21:47 3.4 °F 1.8 °F 1006.0 in SSW 3.2 mph 3.2 mph 89 % 0.0 in
21:52 3.3 °F 1.7 °F 1005.6 in SSW 1.6 mph 3.2 mph 89 % 0.0 in
21:57 3.3 °F 1.7 °F 1005.6 in SSW 1.6 mph 3.2 mph 89 % 0.0 in
22:02 3.5 °F 1.9 °F 1005.6 in South 1.6 mph 6.4 mph 89 % 0.0 in
22:07 3.6 °F 1.8 °F 1005.6 in SW 4.8 mph 6.4 mph 88 % 0.0 in
22:12 3.8 °F 1.8 °F 1005.6 in SSW 6.4 mph 9.7 mph 87 % 0.0 in
22:17 4.0 °F 2.0 °F 1005.6 in SSW 4.8 mph 9.7 mph 87 % 0.0 in
22:22 4.0 °F 2.0 °F 1005.6 in SW 6.4 mph 11.3 mph 87 % 0.0 in
22:27 4.1 °F 2.1 °F 1005.6 in SSW 1.6 mph 11.3 mph 87 % 0.0 in
22:32 4.1 °F 2.1 °F 1005.6 in SSW 6.4 mph 9.7 mph 87 % 0.0 in
22:37 4.1 °F 2.1 °F 1005.6 in SSW 4.8 mph 9.7 mph 87 % 0.0 in
22:42 4.2 °F 2.2 °F 1005.6 in SW 3.2 mph 9.7 mph 87 % 0.0 in
22:47 4.3 °F 2.2 °F 1005.3 in South 1.6 mph 9.7 mph 86 % 0.0 in
22:52 4.3 °F 2.2 °F 1005.3 in South 1.6 mph 9.7 mph 86 % 0.0 in
22:57 4.3 °F 2.3 °F 1005.3 in South 1.6 mph 6.4 mph 87 % 0.0 in
23:02 4.3 °F 2.3 °F 1005.3 in SW 1.6 mph 6.4 mph 87 % 0.0 in
23:07 4.3 °F 2.3 °F 1005.0 in SSW 3.2 mph 4.8 mph 87 % 0.0 in
23:12 4.4 °F 2.4 °F 1005.0 in SSW 1.6 mph 3.2 mph 87 % 0.0 in
23:17 4.4 °F 2.4 °F 1005.0 in Calm   3.2 mph 87 % 0.0 in
23:22 4.3 °F 2.3 °F 1005.0 in Calm   3.2 mph 87 % 0.0 in
23:27 4.4 °F 2.4 °F 1005.0 in Calm   1.6 mph 87 % 0.0 in
23:32 4.4 °F 2.4 °F 1005.0 in Calm   1.6 mph 87 % 0.0 in
23:37 4.4 °F 2.4 °F 1005.0 in Calm   1.6 mph 87 % 0.0 in
23:42 4.5 °F 2.5 °F 1005.0 in Calm     87 % 0.0 in
23:47 4.5 °F 2.5 °F 1005.0 in Calm     87 % 0.0 in
23:52 4.5 °F 2.7 °F 1005.0 in Calm     88 % 0.0 in
23:57 4.6 °F 2.8 °F 1004.6 in Calm   1.6 mph 88 % 0.0 in
Meteo18
Compliments of Weather Underground - 4 mb

Script developed by  Jim McMurry - jmcmurry@mwt.net Adapted for the template by  Wim van der Kuil - Leuven-Template.eu

You find our weather info also at:

European Weather Network

Weather Underground

Equipment we use:

Weather-station
Davis Vue

Weather-program
Meteobridge

Weather-server
Raspberry PI 2 B+

Provider
1 and 1

Davis Vue

Meteobridge

Raspberry PI 2 B+

1 and 1